Time,TemperatureF,DewpointF,PressureIn,WindDirection,WindDirectionDegrees,WindSpeedMPH,WindSpeedGustMPH,Humidity,HourlyPrecipIn,Conditions,Clouds,dailyrainin,SoftwareType,DateUTC
2013-08-12 00:00:00,71.1,64.3,30.00,NNE,28,0.0,0.0,79,0.00,,,0.00,Wunderground v.1.15,2013-08-12 04:00:00,
2013-08-12 00:05:00,70.9,64.1,30.00,NNE,28,0.0,0.0,79,0.00,,,0.00,Wunderground v.1.15,2013-08-12 04:05:00,
2013-08-12 00:10:00,70.6,64.5,30.00,NNE,28,0.0,0.0,81,0.00,,,0.00,Wunderground v.1.15,2013-08-12 04:10:00,
2013-08-12 00:15:00,70.4,64.6,30.00,NNE,28,0.0,0.0,82,0.00,,,0.00,Wunderground v.1.15,2013-08-12 04:15:00,
2013-08-12 00:25:00,70.3,64.9,30.00,NNE,28,0.0,0.0,83,0.00,,,0.00,Wunderground v.1.15,2013-08-12 04:25:00,
2013-08-12 00:35:00,70.8,65.4,30.00,NNE,28,0.0,0.0,83,0.00,,,0.00,Wunderground v.1.15,2013-08-12 04:35:00,
2013-08-12 00:40:00,70.9,65.5,30.00,NNE,28,0.0,0.0,83,0.00,,,0.00,Wunderground v.1.15,2013-08-12 04:40:00,
2013-08-12 00:45:00,71.1,65.7,30.00,NNE,28,0.0,1.0,83,0.00,,,0.00,Wunderground v.1.15,2013-08-12 04:45:00,
2013-08-12 00:55:00,71.1,65.7,30.00,NNE,28,0.0,0.0,83,0.00,,,0.00,Wunderground v.1.15,2013-08-12 04:55:00,
2013-08-12 01:05:00,71.1,65.7,30.00,NNE,28,0.0,0.0,83,0.00,,,0.00,Wunderground v.1.15,2013-08-12 05:05:00,
2013-08-12 01:15:00,71.1,66.4,30.00,NNE,28,0.0,0.0,85,0.56,,,0.03,Wunderground v.1.15,2013-08-12 05:15:00,
2013-08-12 01:25:00,70.8,67.1,30.00,NNE,28,0.0,0.0,88,0.06,,,0.03,Wunderground v.1.15,2013-08-12 05:25:00,
2013-08-12 01:35:00,70.6,67.5,30.00,NNE,28,0.0,0.0,90,0.00,,,0.03,Wunderground v.1.15,2013-08-12 05:35:00,
2013-08-12 01:45:00,70.4,67.6,29.99,NNE,28,0.0,0.0,91,0.00,,,0.03,Wunderground v.1.15,2013-08-12 05:45:00,
2013-08-12 01:55:00,70.3,67.9,29.99,NNE,28,0.0,0.0,92,0.00,,,0.03,Wunderground v.1.15,2013-08-12 05:55:00,
2013-08-12 02:05:00,70.1,68.0,29.99,NNE,28,0.0,0.0,93,0.00,,,0.03,Wunderground v.1.15,2013-08-12 06:05:00,
2013-08-12 02:15:00,70.1,68.0,29.99,NNE,28,0.0,0.0,93,0.00,,,0.03,Wunderground v.1.15,2013-08-12 06:15:00,
2013-08-12 02:20:00,70.3,68.2,29.99,NNE,28,0.0,0.0,93,0.00,,,0.04,Wunderground v.1.15,2013-08-12 06:20:00,
2013-08-12 02:25:00,70.3,68.5,29.99,NNE,28,0.0,0.0,94,0.00,,,0.04,Wunderground v.1.15,2013-08-12 06:25:00,
2013-08-12 02:35:00,70.1,68.3,29.99,NNE,28,0.0,0.0,94,0.00,,,0.04,Wunderground v.1.15,2013-08-12 06:35:00,
2013-08-12 02:45:00,69.8,68.0,29.98,NNE,28,0.0,0.0,94,0.00,,,0.04,Wunderground v.1.15,2013-08-12 06:45:00,
2013-08-12 02:55:00,69.8,68.0,29.98,NNE,28,0.0,0.0,94,0.00,,,0.04,Wunderground v.1.15,2013-08-12 06:55:00,
2013-08-12 03:05:00,69.6,68.1,29.98,NNE,28,0.0,0.0,95,0.00,,,0.04,Wunderground v.1.15,2013-08-12 07:05:00,
2013-08-12 03:15:00,69.8,68.3,29.98,NNE,28,0.0,0.0,95,0.00,,,0.04,Wunderground v.1.15,2013-08-12 07:15:00,
2013-08-12 03:20:00,69.8,68.3,29.98,NNE,28,0.0,0.0,95,0.00,,,0.04,Wunderground v.1.15,2013-08-12 07:20:00,
2013-08-12 03:25:00,69.8,68.3,29.98,NNE,28,0.0,0.0,95,0.00,,,0.04,Wunderground v.1.15,2013-08-12 07:25:00,
2013-08-12 03:35:00,69.6,68.1,29.98,NNE,28,0.0,0.0,95,0.00,,,0.04,Wunderground v.1.15,2013-08-12 07:35:00,
2013-08-12 03:45:00,69.4,67.9,29.98,NNE,28,0.0,0.0,95,0.00,,,0.04,Wunderground v.1.15,2013-08-12 07:45:00,
2013-08-12 03:55:00,69.3,67.8,29.98,NNE,28,0.0,0.0,95,0.00,,,0.04,Wunderground v.1.15,2013-08-12 07:55:00,
2013-08-12 04:05:00,69.3,67.8,29.98,NNE,28,0.0,0.0,95,0.00,,,0.04,Wunderground v.1.15,2013-08-12 08:05:00,
2013-08-12 04:15:00,69.1,67.6,29.97,NNE,28,0.0,0.0,95,0.00,,,0.04,Wunderground v.1.15,2013-08-12 08:15:00,
2013-08-12 04:25:00,68.8,67.3,29.97,NNE,28,0.0,0.0,95,0.00,,,0.04,Wunderground v.1.15,2013-08-12 08:25:00,
2013-08-12 04:35:00,68.8,67.3,29.97,NNE,28,0.0,0.0,95,0.00,,,0.04,Wunderground v.1.15,2013-08-12 08:35:00,
2013-08-12 04:45:00,68.6,67.1,29.97,NNE,28,0.0,0.0,95,0.00,,,0.04,Wunderground v.1.15,2013-08-12 08:45:00,
2013-08-12 04:55:00,68.6,67.4,29.97,NNE,28,0.0,0.0,96,0.00,,,0.04,Wunderground v.1.15,2013-08-12 08:55:00,
2013-08-12 05:05:00,68.8,67.6,29.97,NNE,28,0.0,0.0,96,0.00,,,0.04,Wunderground v.1.15,2013-08-12 09:05:00,
2013-08-12 05:15:00,68.9,67.7,29.97,NNE,28,0.0,0.0,96,0.00,,,0.04,Wunderground v.1.15,2013-08-12 09:15:00,
2013-08-12 05:25:00,68.9,67.7,29.97,NNE,28,0.0,0.0,96,0.00,,,0.04,Wunderground v.1.15,2013-08-12 09:25:00,
2013-08-12 05:35:00,69.1,67.9,29.97,NNE,28,0.0,0.0,96,0.00,,,0.04,Wunderground v.1.15,2013-08-12 09:35:00,
2013-08-12 05:45:00,69.1,67.9,29.98,NNE,28,0.0,0.0,96,0.00,,,0.04,Wunderground v.1.15,2013-08-12 09:45:00,
2013-08-12 05:55:00,69.1,67.9,29.98,NNE,28,0.0,0.0,96,0.00,,,0.04,Wunderground v.1.15,2013-08-12 09:55:00,
2013-08-12 06:05:00,68.9,67.7,29.98,NNE,28,0.0,0.0,96,0.00,,,0.04,Wunderground v.1.15,2013-08-12 10:05:00,
2013-08-12 06:15:00,68.9,67.7,29.98,NNE,28,0.0,0.0,96,0.00,,,0.04,Wunderground v.1.15,2013-08-12 10:15:00,
2013-08-12 06:25:00,68.9,67.7,29.98,NNE,28,0.0,0.0,96,0.00,,,0.04,Wunderground v.1.15,2013-08-12 10:25:00,
2013-08-12 06:35:00,68.9,67.7,29.98,NNE,28,0.0,0.0,96,0.00,,,0.04,Wunderground v.1.15,2013-08-12 10:35:00,
2013-08-12 06:45:00,68.8,67.6,29.98,NNE,28,0.0,0.0,96,0.00,,,0.04,Wunderground v.1.15,2013-08-12 10:45:00,
2013-08-12 06:55:00,68.6,67.4,29.98,NNE,28,0.0,0.0,96,0.00,,,0.04,Wunderground v.1.15,2013-08-12 10:55:00,
2013-08-12 07:05:00,68.8,67.6,29.98,NNE,28,0.0,0.0,96,0.00,,,0.04,Wunderground v.1.15,2013-08-12 11:05:00,
2013-08-12 07:15:00,68.8,67.6,29.99,NNE,28,0.0,0.0,96,0.00,,,0.04,Wunderground v.1.15,2013-08-12 11:15:00,
2013-08-12 07:20:00,68.9,67.7,29.99,NNE,28,0.0,0.0,96,0.00,,,0.04,Wunderground v.1.15,2013-08-12 11:20:00,
2013-08-12 07:25:00,68.9,67.7,29.99,NNE,28,0.0,0.0,96,0.00,,,0.04,Wunderground v.1.15,2013-08-12 11:25:00,
2013-08-12 07:35:00,68.6,67.4,30.00,NNE,28,0.0,0.0,96,0.00,,,0.04,Wunderground v.1.15,2013-08-12 11:35:00,
2013-08-12 07:45:00,68.4,67.2,29.99,NNE,28,0.0,0.0,96,0.00,,,0.04,Wunderground v.1.15,2013-08-12 11:45:00,
2013-08-12 07:55:00,68.6,67.4,29.99,NNE,28,0.0,1.0,96,0.00,,,0.04,Wunderground v.1.15,2013-08-12 11:55:00,
2013-08-12 08:05:00,68.6,67.4,29.99,NNE,28,0.0,1.0,96,0.00,,,0.04,Wunderground v.1.15,2013-08-12 12:05:00,
2013-08-12 08:15:00,68.4,67.2,29.98,NNE,28,1.0,1.0,96,0.00,,,0.04,Wunderground v.1.15,2013-08-12 12:15:00,
2013-08-12 08:25:00,68.6,67.4,29.98,NNE,28,0.0,1.0,96,0.00,,,0.04,Wunderground v.1.15,2013-08-12 12:25:00,
2013-08-12 08:35:00,68.6,67.4,29.98,NNE,28,0.0,0.0,96,0.00,,,0.04,Wunderground v.1.15,2013-08-12 12:35:00,
2013-08-12 08:45:00,68.9,67.7,29.98,NNE,28,0.0,1.0,96,0.00,,,0.04,Wunderground v.1.15,2013-08-12 12:45:00,
2013-08-12 08:50:00,69.3,68.1,29.98,NNE,28,0.0,0.0,96,0.00,,,0.04,Wunderground v.1.15,2013-08-12 12:50:00,
2013-08-12 08:55:00,69.4,68.2,29.98,NNE,28,0.0,0.0,96,0.00,,,0.04,Wunderground v.1.15,2013-08-12 12:55:00,
2013-08-12 09:05:00,69.3,68.1,29.99,NNE,28,0.0,0.0,96,0.00,,,0.04,Wunderground v.1.15,2013-08-12 13:05:00,
2013-08-12 09:15:00,69.3,68.1,29.98,NNE,28,1.0,1.0,96,0.00,,,0.04,Wunderground v.1.15,2013-08-12 13:15:00,
2013-08-12 09:20:00,69.3,68.1,29.98,NNE,28,0.0,0.0,96,0.00,,,0.04,Wunderground v.1.15,2013-08-12 13:20:00,
2013-08-12 09:25:00,69.4,68.2,29.98,NNE,28,0.0,0.0,96,0.00,,,0.04,Wunderground v.1.15,2013-08-12 13:25:00,
2013-08-12 09:35:00,69.6,68.4,29.98,NNE,28,0.0,1.0,96,0.00,,,0.04,Wunderground v.1.15,2013-08-12 13:35:00,
2013-08-12 09:45:00,69.6,68.4,29.99,NNE,28,0.0,0.0,96,0.00,,,0.04,Wunderground v.1.15,2013-08-12 13:45:00,
2013-08-12 09:55:00,69.8,68.6,29.99,NNE,28,0.0,0.0,96,0.00,,,0.04,Wunderground v.1.15,2013-08-12 13:55:00,
2013-08-12 10:05:00,69.8,68.6,30.00,NNE,28,0.0,0.0,96,0.00,,,0.04,Wunderground v.1.15,2013-08-12 14:05:00,
2013-08-12 10:15:00,69.9,68.7,29.99,NNE,28,0.0,0.0,96,0.00,,,0.04,Wunderground v.1.15,2013-08-12 14:15:00,
2013-08-12 10:25:00,70.1,68.6,29.99,NNE,28,0.0,0.0,95,0.00,,,0.04,Wunderground v.1.15,2013-08-12 14:25:00,
2013-08-12 10:35:00,69.9,68.4,30.00,NNE,28,0.0,0.0,95,0.00,,,0.04,Wunderground v.1.15,2013-08-12 14:35:00,
2013-08-12 10:45:00,70.1,68.6,29.99,NNE,28,0.0,0.0,95,0.00,,,0.04,Wunderground v.1.15,2013-08-12 14:45:00,
2013-08-12 10:55:00,69.8,68.3,29.99,NNE,28,0.0,0.0,95,0.00,,,0.04,Wunderground v.1.15,2013-08-12 14:55:00,
2013-08-12 11:10:00,70.4,68.9,29.99,NNE,28,0.0,0.0,95,0.00,,,0.04,Wunderground v.1.15,2013-08-12 15:10:00,
2013-08-12 11:15:00,70.9,69.4,29.98,NNE,28,0.0,0.0,95,0.00,,,0.04,Wunderground v.1.15,2013-08-12 15:15:00,
2013-08-12 11:25:00,71.1,68.7,29.98,NNE,28,0.0,1.0,92,0.00,,,0.04,Wunderground v.1.15,2013-08-12 15:25:00,
2013-08-12 11:35:00,70.8,66.7,29.98,NNE,28,0.0,1.0,87,0.00,,,0.04,Wunderground v.1.15,2013-08-12 15:35:00,
2013-08-12 11:45:00,72.3,65.4,29.98,NNE,28,0.0,1.0,79,0.00,,,0.04,Wunderground v.1.15,2013-08-12 15:45:00,
2013-08-12 11:55:00,72.7,65.4,29.98,NNE,28,0.0,0.0,78,0.00,,,0.04,Wunderground v.1.15,2013-08-12 15:55:00,
2013-08-12 12:05:00,72.5,66.0,29.98,NNE,28,0.0,1.0,80,0.00,,,0.04,Wunderground v.1.15,2013-08-12 16:05:00,
2013-08-12 12:15:00,74.6,66.1,29.97,ENE,78,0.0,1.0,75,0.00,,,0.04,Wunderground v.1.15,2013-08-12 16:15:00,
2013-08-12 12:20:00,75.1,64.6,29.97,NE,40,1.0,1.0,70,0.00,,,0.04,Wunderground v.1.15,2013-08-12 16:20:00,
2013-08-12 12:25:00,75.1,63.4,29.97,NE,40,1.0,2.0,67,0.00,,,0.04,Wunderground v.1.15,2013-08-12 16:25:00,
2013-08-12 12:35:00,74.4,63.6,29.97,WNW,290,0.0,2.0,69,0.00,,,0.04,Wunderground v.1.15,2013-08-12 16:35:00,
2013-08-12 12:45:00,74.7,62.6,29.97,WNW,292,0.0,2.0,66,0.00,,,0.04,Wunderground v.1.15,2013-08-12 16:45:00,
2013-08-12 12:55:00,76.1,61.2,29.97,WNW,302,1.0,2.0,60,0.00,,,0.04,Wunderground v.1.15,2013-08-12 16:55:00,
2013-08-12 13:05:00,75.3,60.5,29.97,NNW,338,1.0,1.0,60,0.00,,,0.04,Wunderground v.1.15,2013-08-12 17:05:00,
2013-08-12 13:15:00,76.0,61.1,29.97,NNW,338,0.0,1.0,60,0.00,,,0.04,Wunderground v.1.15,2013-08-12 17:15:00,
2013-08-12 13:25:00,77.0,60.6,29.97,NNW,340,1.0,1.0,57,0.00,,,0.04,Wunderground v.1.15,2013-08-12 17:25:00,
2013-08-12 13:35:00,77.2,63.2,29.96,NNW,333,0.0,1.0,62,0.00,,,0.04,Wunderground v.1.15,2013-08-12 17:35:00,
2013-08-12 13:45:00,78.3,63.7,29.96,NNW,333,1.0,1.0,61,0.00,,,0.04,Wunderground v.1.15,2013-08-12 17:45:00,
2013-08-12 13:55:00,79.0,63.9,29.96,SW,221,1.0,1.0,60,0.00,,,0.04,Wunderground v.1.15,2013-08-12 17:55:00,
2013-08-12 14:05:00,79.0,60.4,29.96,SSW,213,0.0,1.0,53,0.00,,,0.04,Wunderground v.1.15,2013-08-12 18:05:00,
2013-08-12 14:15:00,79.0,59.9,29.96,ENE,69,1.0,2.0,52,0.00,,,0.04,Wunderground v.1.15,2013-08-12 18:15:00,
2013-08-12 14:25:00,79.8,62.7,29.96,ENE,69,0.0,1.0,56,0.00,,,0.04,Wunderground v.1.15,2013-08-12 18:25:00,
2013-08-12 14:35:00,79.9,60.7,29.95,North,350,0.0,0.0,52,0.00,,,0.04,Wunderground v.1.15,2013-08-12 18:35:00,
2013-08-12 14:45:00,79.9,62.8,29.95,NE,46,1.0,1.0,56,0.00,,,0.04,Wunderground v.1.15,2013-08-12 18:45:00,
2013-08-12 14:55:00,79.6,59.9,29.95,SSW,198,1.0,1.0,51,0.00,,,0.04,Wunderground v.1.15,2013-08-12 18:55:00,
2013-08-12 15:05:00,79.6,59.9,29.94,NE,40,1.0,3.0,51,0.00,,,0.04,Wunderground v.1.15,2013-08-12 19:05:00,
2013-08-12 15:15:00,79.6,60.4,29.94,NE,41,1.0,2.0,52,0.00,,,0.04,Wunderground v.1.15,2013-08-12 19:15:00,
2013-08-12 15:25:00,79.4,60.8,29.94,East,92,1.0,1.0,53,0.00,,,0.04,Wunderground v.1.15,2013-08-12 19:25:00,
2013-08-12 15:35:00,79.8,62.2,29.94,East,92,1.0,1.0,55,0.00,,,0.04,Wunderground v.1.15,2013-08-12 19:35:00,
2013-08-12 15:45:00,79.8,60.1,29.93,East,92,0.0,2.0,51,0.00,,,0.04,Wunderground v.1.15,2013-08-12 19:45:00,
2013-08-12 15:55:00,79.2,63.1,29.93,SW,218,0.0,1.0,58,0.00,,,0.04,Wunderground v.1.15,2013-08-12 19:55:00,
2013-08-12 16:05:00,78.5,62.5,29.92,SSW,209,1.0,1.0,58,0.00,,,0.04,Wunderground v.1.15,2013-08-12 20:05:00,
2013-08-12 16:15:00,78.3,60.3,29.92,SSW,209,0.0,1.0,54,0.00,,,0.04,Wunderground v.1.15,2013-08-12 20:15:00,
2013-08-12 16:20:00,78.5,61.5,29.92,SSW,209,0.0,2.0,56,0.00,,,0.04,Wunderground v.1.15,2013-08-12 20:20:00,
2013-08-12 16:25:00,78.6,60.6,29.92,SSW,209,0.0,2.0,54,0.00,,,0.04,Wunderground v.1.15,2013-08-12 20:25:00,
2013-08-12 16:35:00,77.7,63.2,29.92,SSW,209,0.0,1.0,61,0.00,,,0.04,Wunderground v.1.15,2013-08-12 20:35:00,
2013-08-12 16:45:00,77.7,59.7,29.92,SSW,209,0.0,0.0,54,0.00,,,0.04,Wunderground v.1.15,2013-08-12 20:45:00,
2013-08-12 16:55:00,78.8,61.3,29.92,SSW,209,0.0,1.0,55,0.00,,,0.04,Wunderground v.1.15,2013-08-12 20:55:00,
2013-08-12 17:05:00,78.1,62.1,29.92,SSW,209,1.0,1.0,58,0.00,,,0.04,Wunderground v.1.15,2013-08-12 21:05:00,
2013-08-12 17:15:00,78.1,62.6,29.91,SSW,209,0.0,1.0,59,0.00,,,0.04,Wunderground v.1.15,2013-08-12 21:15:00,
2013-08-12 17:25:00,77.7,61.7,29.91,SSW,209,1.0,1.0,58,0.00,,,0.04,Wunderground v.1.15,2013-08-12 21:25:00,
2013-08-12 17:30:00,77.7,60.8,29.91,SSW,209,0.0,0.0,56,0.00,,,0.04,Wunderground v.1.15,2013-08-12 21:30:00,
2013-08-12 17:35:00,78.1,60.1,29.91,SSW,209,0.0,0.0,54,0.00,,,0.04,Wunderground v.1.15,2013-08-12 21:35:00,
2013-08-12 17:45:00,77.9,61.9,29.90,SSW,209,0.0,0.0,58,0.00,,,0.04,Wunderground v.1.15,2013-08-12 21:45:00,
2013-08-12 17:55:00,76.8,62.8,29.90,SSW,209,0.0,0.0,62,0.00,,,0.04,Wunderground v.1.15,2013-08-12 21:55:00,
2013-08-12 18:06:00,76.1,63.5,29.91,SSW,209,0.0,0.0,65,0.00,,,0.04,Wunderground v.1.15,2013-08-12 22:06:00,
2013-08-12 18:15:00,75.8,63.6,29.90,SSW,209,0.0,0.0,66,0.00,,,0.04,Wunderground v.1.15,2013-08-12 22:15:00,
2013-08-12 18:25:00,76.0,62.9,29.90,SSW,209,0.0,0.0,64,0.00,,,0.04,Wunderground v.1.15,2013-08-12 22:25:00,
2013-08-12 18:35:00,75.8,64.1,29.90,SSW,209,0.0,0.0,67,0.00,,,0.04,Wunderground v.1.15,2013-08-12 22:35:00,
2013-08-12 18:45:00,75.8,63.6,29.90,SSW,209,0.0,0.0,66,0.00,,,0.04,Wunderground v.1.15,2013-08-12 22:45:00,
2013-08-12 18:55:00,75.6,63.4,29.90,SSW,209,0.0,0.0,66,0.00,,,0.04,Wunderground v.1.15,2013-08-12 22:55:00,
2013-08-12 19:05:00,75.6,63.4,29.90,SSW,209,0.0,2.0,66,0.00,,,0.04,Wunderground v.1.15,2013-08-12 23:05:00,
2013-08-12 19:15:00,76.1,64.3,29.90,SSW,209,0.0,0.0,67,0.00,,,0.04,Wunderground v.1.15,2013-08-12 23:15:00,
2013-08-12 19:25:00,76.0,65.9,29.90,SSW,209,0.0,1.0,71,0.00,,,0.04,Wunderground v.1.15,2013-08-12 23:25:00,
2013-08-12 19:35:00,76.0,67.5,29.90,SE,132,1.0,2.0,75,0.00,,,0.04,Wunderground v.1.15,2013-08-12 23:35:00,
2013-08-12 19:45:00,75.8,67.3,29.89,South,185,0.0,1.0,75,0.00,,,0.04,Wunderground v.1.15,2013-08-12 23:45:00,
2013-08-12 19:55:00,75.4,67.3,29.89,South,185,0.0,0.0,76,0.00,,,0.04,Wunderground v.1.15,2013-08-12 23:55:00,
2013-08-12 20:05:00,74.9,67.2,29.90,South,185,0.0,0.0,77,0.00,,,0.04,Wunderground v.1.15,2013-08-13 00:05:00,
2013-08-12 20:15:00,74.4,67.5,29.89,South,185,0.0,0.0,79,0.00,,,0.04,Wunderground v.1.15,2013-08-13 00:15:00,
2013-08-12 20:25:00,74.0,67.1,29.89,South,185,0.0,0.0,79,0.00,,,0.04,Wunderground v.1.15,2013-08-13 00:25:00,
2013-08-12 20:35:00,73.5,67.3,29.89,South,185,0.0,0.0,81,0.00,,,0.04,Wunderground v.1.15,2013-08-13 00:35:00,
2013-08-12 20:45:00,73.2,67.0,29.90,South,185,0.0,0.0,81,0.00,,,0.04,Wunderground v.1.15,2013-08-13 00:45:00,
2013-08-12 20:55:00,73.2,67.0,29.90,South,185,0.0,0.0,81,0.00,,,0.04,Wunderground v.1.15,2013-08-13 00:55:00,
2013-08-12 21:05:00,72.5,67.0,29.89,South,185,0.0,0.0,83,0.00,,,0.04,Wunderground v.1.15,2013-08-13 01:05:00,
2013-08-12 21:15:00,72.3,67.2,29.90,South,185,0.0,0.0,84,0.00,,,0.04,Wunderground v.1.15,2013-08-13 01:15:00,
2013-08-12 21:25:00,72.0,66.9,29.90,South,185,0.0,0.0,84,0.00,,,0.04,Wunderground v.1.15,2013-08-13 01:25:00,
2013-08-12 21:35:00,71.6,66.8,29.90,South,185,0.0,0.0,85,0.00,,,0.04,Wunderground v.1.15,2013-08-13 01:35:00,
2013-08-12 21:45:00,71.3,66.9,29.90,South,185,0.0,0.0,86,0.00,,,0.04,Wunderground v.1.15,2013-08-13 01:45:00,
2013-08-12 21:55:00,71.1,67.0,29.90,South,185,0.0,0.0,87,0.00,,,0.04,Wunderground v.1.15,2013-08-13 01:55:00,
2013-08-12 22:05:00,70.9,66.8,29.90,South,185,0.0,0.0,87,0.00,,,0.04,Wunderground v.1.15,2013-08-13 02:05:00,
2013-08-12 22:15:00,70.6,66.5,29.89,South,185,0.0,0.0,87,0.00,,,0.04,Wunderground v.1.15,2013-08-13 02:15:00,
2013-08-12 22:25:00,70.3,66.6,29.89,South,185,0.0,0.0,88,0.00,,,0.04,Wunderground v.1.15,2013-08-13 02:25:00,
2013-08-12 22:35:00,70.1,66.7,29.89,South,185,0.0,0.0,89,0.00,,,0.04,Wunderground v.1.15,2013-08-13 02:35:00,
2013-08-12 22:45:00,69.9,66.8,29.90,South,185,0.0,0.0,90,0.00,,,0.04,Wunderground v.1.15,2013-08-13 02:45:00,
2013-08-12 22:55:00,69.6,66.5,29.90,South,185,0.0,0.0,90,0.00,,,0.04,Wunderground v.1.15,2013-08-13 02:55:00,
2013-08-12 23:05:00,69.4,66.3,29.90,South,185,0.0,0.0,90,0.00,,,0.04,Wunderground v.1.15,2013-08-13 03:05:00,
2013-08-12 23:15:00,69.3,66.6,29.90,South,185,0.0,0.0,91,0.00,,,0.04,Wunderground v.1.15,2013-08-13 03:15:00,
2013-08-12 23:25:00,69.1,66.4,29.90,South,185,0.0,0.0,91,0.00,,,0.04,Wunderground v.1.15,2013-08-13 03:25:00,
2013-08-12 23:35:00,68.9,66.5,29.90,South,185,0.0,0.0,92,0.00,,,0.04,Wunderground v.1.15,2013-08-13 03:35:00,
2013-08-12 23:45:00,68.8,66.4,29.90,South,185,0.0,0.0,92,0.00,,,0.04,Wunderground v.1.15,2013-08-13 03:45:00,
2013-08-12 23:55:00,68.4,66.3,29.90,South,185,0.0,0.0,93,0.00,,,0.04,Wunderground v.1.15,2013-08-13 03:55:00,